Reflectivity
-20 -20 -20 -20 -20 -20 -20 -20 -20 -20 -20 -20 -20 -20 -20 -20 -20 -20 -20 -20 -20 -20 -20 -20 -20 -20 -20 -20 -20 -20 -20 -20 -20 -20 -20 -20 -20 -20 -20 -20 -20 -20 -20 -20
-20 -20 -20 -20 -20 -20 -20 -20 -20 -20 -20 -20 -20 -20 -20 -20 -20 -20 -20 -20 -20 -20 -20 -20 -20 -20 -20 -20 -20 -20 -20 -20 -20 -20 -20 -20 -20 -20 -20 -20 -20 -20 -20 -20
-20 -20 -20 -20 -20 -20 -20 -20 -20 -20 -20 -20 -20 -20 -20 -20 -20 -20 -20 -20 -20 -20 -20 -20 -20 -20 -20 -20 -20 -20 -20 -20 -20 -20 -20 -20 -20 -20 -20 -20 -20 -20 -20 -20
-20 -20 -20 -20 -20 -20 -20 -20 -20 -20 -20 -20 -20 -20 -20 -20 -20 -20 -20 -20 -20 -20 -20 -20 -20 -20 -20 -20 -20 -20 -20 -20 -20 -20 -20 -20 -20 -20 -20 -20 -20 -20 -20 -20
-20 -20 -20 -20 -20 -20 -20 -20 -20 -20 -20 -20 -20 -20 -20 -20 -20 -20 -20 -20 -20 -20 -20 -20 -20 -20 -20 -20 -20 -20 -20 -20 -20 -20 -20 -20 -20 -20 -20 -20 -20 -20 -20 -20
-20 -20 -20 -20 -20 -20 -20 -20 -20 -20 -20 -20 -20 -20 -20 -20 -20 -20 -20 -20 -20 -20 -20 -20 -20 -20 -20 -20 -20 -20 -20 -20 -20 -20 -20 -20 -20 -20 -20 -20 -20 -20 -20 -20
-20 -20 -20 -20 -20 -20 -20 -20 -20 -20 -20 -20 -20 -20 -20 -20 -20 -20 -20 -20 -20 -20 -20 -20 -20 -20 -20 -20 -20 -20 -20 -20 -20 -20 -20 -20 -20 -20 -20 -20 -20 -20 -20 -20
-20 -20 -20 -20 -20 -20 -20 -20 -20 -20 -20 -20 -20 -20 -20 -20 -20 -20 -20 -20 -20 -20 -20 -20 -20 -20 -20 -20 -20 -20 -20 -20 -20 -20 -20 -20 -20 -20 -20 -20 -20 -20 -20 -20
-20 -20 -20 -20 -20 -20 -20 -20 -20 -20 -20 -20 -20 -20 -20 -20 -20 -20 -20 -20 -20 -20 -20 -20 -20 -20 -20 -20 -20 -20 -20 -20 -20 -20 -20 -20 -20 -20 -20 -20 -20 -20 -20 -20
-20 -20 -20 -20 -20 -20 -20 -20 -20 -20 -20 -20 -20 -20 -20 -20 -20 -20 -20 -20 -20 -20 -20 -20 -20 -20 -20 -20 -20 -20 -20 -20 -20 -20 -20 -20 -20 -20 -20 -20 -20 -20 -20 -20
-20 -20 -20 -20 -20 -20 -20 -20 -20 -20 -20 -20 -20 -20 -20 -20 -20 -20 -20 -20 -20 -20 -20 -20 -20 -20 -20 -20 -20 -20 -20 -20 -20 -20 -20 -20 -20 -20 -20 -20 -20 -20 -20 -20
-20 -20 -20 -20 -20 -20 -20 -20 -20 -20 -20 -20 -20 -20 -20 -20 -20 -20 -20 -20 -20 -20 -20 -20 -20 -20 -20 -20 -20 -20 -20 -20 -20 -20 -20 -20 -20 -20 -20 -20 -20 -20 -20 -20
-20 -20 -20 -20 -20 -20 -20 -20 -20 -20 -20 -20 -20 -20 -20 -20 -20 -20 -20 -20 -20 -20 -20 -20 -20 -20 -20 -20 -20 -20 -20 -20 -20 -20 -20 -20 -20 -20 -20 -20 -20 -20 -20 -20
-20 -20 -20 -20 -20 -20 -20 -20 -20 -20 -20 -20 -20 -20 -20 -20 -20 -20 -20 -20 -20 -20 -20 -20 -20 -20 -20 -20 -20 -20 -20 -19 -20 -20 -20 -20 -20 -20 -20 -20 -20 -20 -20 -20
-20 -20 -20 -20 -20 -20 -20 -20 -20 -20 -20 -20 -20 -20 -20 -20 -20 -20 -20 -20 -20 -20 -20 -20 -20 -20 -20 -20 -20 -12 -13 -20 -20 -20 -20 -20 -20 -20 -20 -20 -20 -20 -20 -20
-20 -20 -20 -20 -20 -20 -20 -20 -20 -20 -20 -20 -20 -20 -20 -20 -20 -20 -20 -20 -20 -20 -20 -20 -20 -20 -20 -20 -20 -20 -20 -20 -20 -20 -20 -20 -20 -20 -20 -20 -20 -20 -20 -20
-20 -20 -20 -20 -20 -20 -20 -20 -20 -20 -20 -20 -20 -20 -20 -20 -20 -20 -20 -20 -20 -20 -20 -20 -20 -18 -4 -17 -20 -20 -20 -20 -20 -20 -20 -20 -20 -20 -20 -20 -20 -20 -20 -20
-20 -20 -20 -20 -20 -20 -20 -20 -20 -20 -20 -20 -20 -20 -20 -20 -20 -20 -20 -20 -20 -20 -20 -20 -20 -20 -20 -20 -20 -20 -20 -13 -20 -20 -20 -20 -20 -20 -20 -20 -20 -20 -20 -20
-20 -20 -20 -20 -20 -20 -20 -20 -20 -20 -20 -20 -20 -20 -20 -20 -20 -20 -14 -20 -20 -20 -20 -20 -20 -20 -20 -20 -20 -20 -20 -20 -20 -20 -20 -20 -20 -20 -20 -20 -20 -20 -20 -20
-20 -20 -2 1 -10 -20 -20 -20 -20 -20 -20 -20 -20 -20 -20 -20 -20 -20 -20 -20 -20 -20 -20 -20 -20 -20 -20 -20 -20 -20 -20 -20 -20 -20 -20 -20 -20 -20 -20 -20 -20 -20 -20 -20
-20 -19 -3 -8 -6 -18 -20 -20 -20 -20 -20 -20 -20 -20 -20 -20 -20 -20 -20 -20 -20 -20 -20 -20 -20 -20 -20 -20 -20 -20 -20 -20 -20 -20 -20 -20 -20 -20 -20 -20 -20 -20 -20 -20
-20 -20 -16 -6 8 -11 -20 -20 -20 -20 -20 -20 -20 -20 -20 -20 -20 -20 -20 -20 -20 -20 -20 -20 -20 -20 -20 -20 -16 -20 -20 -20 -20 -20 -20 -20 -20 -20 -20 -20 -20 -20 -20 -20
-20 -20 -20 -20 -20 -20 -20 -20 -20 -20 -20 -20 -20 -20 -20 -20 -20 -20 -20 -20 -20 -20 -20 -20 -20 -20 -20 -20 -20 -20 -20 -20 -20 -20 -20 -20 -20 -20 -20 -20 -20 -20 -20 -20
-20 -20 -20 -20 -20 -20 -20 -20 -20 -20 -20 -20 -20 -20 -20 -20 -20 -20 -20 -20 -20 -20 -20 -20 -20 -20 -20 -20 -20 -20 -20 -20 -20 -20 -20 -20 -20 -20 -20 -20 -20 -20 -20 -20
-20 -20 -20 -20 -20 -20 -20 -20 -20 -20 -20 -20 -20 -20 -20 -20 -20 -20 -20 -20 -20 -20 -20 -20 -20 -20 -20 -20 -20 -20 -20 -20 -20 -20 -20 -20 -20 -20 -20 -20 -20 -20 -20 -20
-20 -20 -20 -20 -20 -20 -20 -20 -20 -20 -20 -20 -20 -20 -20 -20 -20 -20 -20 -20 -20 -20 -20 -20 -20 -20 -20 -20 -20 -20 -20 -20 -20 -20 -20 -20 -20 -20 -20 -20 -20 -20 -20 -20
Wind_Speed
3 2 5 5 5 4 3 0 3 1 3 7 3 11 11 7 3 8 7 6 4 5 4 4 4 4 4 5 4 6 6 6 5 4 4 2 3 4 3 4 5 6 6 5
3 6 4 4 2 1 0 2 1 2 1 6 7 14 1 1 3 4 5 5 5 4 4 5 5 5 7 7 7 6 7 6 5 4 4 3 4 3 5 5 6 6 6 6
4 5 3 2 2 2 1 2 3 5 9 3 9 5 7 5 5 4 5 4 4 4 5 6 6 7 6 8 8 7 7 6 5 6 4 4 3 3 4 4 5 5 6 6
7 2 2 3 2 3 1 2 2 6 6 4 3 3 7 8 6 5 4 4 4 4 4 5 5 7 8 8 6 6 6 7 6 6 5 6 5 5 4 6 6 8 9 7
3 2 2 2 2 1 3 2 3 3 6 5 3 6 7 5 7 7 4 3 4 4 3 4 6 7 8 8 7 7 8 9 9 8 7 6 6 5 5 5 7 7 7 9
3 0 1 2 1 1 2 2 2 2 3 5 1 4 5 5 4 9 6 4 4 3 4 5 6 6 8 7 7 8 8 8 8 7 8 8 8 8 7 8 6 6 5 4
2 2 1 1 2 3 2 3 2 3 4 1 2 5 4 3 3 6 8 6 4 3 3 4 5 6 7 8 8 6 8 8 8 8 8 8 8 7 7 8 7 9 7 7
3 3 3 2 3 4 1 4 3 5 3 2 2 7 2 3 4 6 5 4 4 3 2 4 4 5 5 6 6 6 7 7 8 8 9 8 8 5 5 7 6 6 6 7
1 1 2 4 3 3 2 3 4 2 1 3 3 4 6 4 7 7 7 6 5 2 2 2 2 2 3 4 5 6 6 6 7 8 8 8 8 8 7 8 7 6 7 7
2 3 1 2 1 4 3 3 1 0 3 5 3 6 6 8 12 10 9 7 6 5 1 2 1 1 0 0 2 4 5 5 6 7 7 7 8 8 8 8 9 9 9 10
4 2 4 2 6 3 4 3 2 2 4 4 5 2 4 2 8 13 10 5 4 6 5 5 3 3 3 3 4 5 5 6 6 7 8 8 8 9 8 8 8 9 10 10
2 2 5 2 3 0 2 3 5 4 5 3 4 8 2 2 4 10 9 4 5 7 7 8 8 6 3 3 5 6 6 7 7 8 9 9 10 9 9 9 9 9 9 10
6 2 3 3 2 1 5 4 2 3 2 12 9 4 4 4 7 2 8 8 13 14 11 9 6 5 3 4 6 7 7 8 8 8 9 10 11 10 10 10 10 10 11 11
4 4 6 9 5 3 5 6 8 8 5 13 14 24 12 12 12 7 11 11 10 9 6 3 5 4 4 5 7 8 9 8 9 9 10 11 12 12 12 11 11 11 11 11
3 5 10 14 13 10 15 15 16 17 18 17 21 22 18 18 14 8 6 7 6 3 3 4 5 6 8 8 9 9 10 10 10 10 11 12 12 12 13 12 12 12 11 11
2 2 2 4 12 15 19 17 20 21 22 25 26 25 9 5 5 7 10 10 9 9 10 13 11 14 12 11 10 11 12 12 11 12 12 12 12 12 12 13 12 13 12 12
4 3 1 6 2 6 11 15 14 13 12 10 13 5 4 5 8 11 13 11 10 12 15 14 15 16 16 16 12 13 14 12 12 13 12 12 13 12 13 13 13 13 13 13
5 4 2 6 4 7 4 3 3 4 5 2 1 3 5 7 11 12 11 10 14 18 18 19 17 19 16 14 13 14 12 12 12 12 12 12 13 13 13 13 14 14 12 13
10 9 5 5 6 13 15 3 2 1 4 4 2 5 10 14 18 13 4 12 18 18 19 20 21 17 16 15 15 13 12 12 12 13 12 12 12 13 14 14 13 13 12 13
4 10 8 4 6 7 6 4 4 4 8 4 7 12 15 16 15 15 17 20 20 21 19 19 21 20 17 17 15 12 13 13 14 13 13 13 13 13 15 14 14 13 13 13
4 4 13 12 9 8 4 3 4 8 4 8 10 12 14 15 14 22 20 20 20 20 21 21 21 18 19 17 14 12 13 14 13 13 13 13 13 14 15 15 14 13 14 14
6 6 5 6 6 12 3 1 3 7 9 11 11 11 14 16 18 18 19 19 19 20 19 19 17 16 17 15 10 12 13 14 13 13 14 15 15 12 11 14 14 14 14 14
5 5 2 6 3 2 1 5 6 9 10 10 9 10 10 12 14 15 16 17 17 17 16 15 14 13 13 13 11 13 16 14 14 14 16 16 16 14 14 14 14 12 13 11
4 3 4 5 2 9 8 12 8 9 14 13 11 12 12 14 14 16 16 17 16 17 17 16 15 15 15 14 14 14 15 15 15 15 16 15 15 16 15 11 11 11 11 11
0 2 4 8 11 13 13 7 13 16 15 16 15 15 14 15 17 17 17 18 17 17 17 17 16 15 16 16 16 17 15 15 15 15 15 16 13 15 14 13 12 11 13 12
5 6 4 7 10 12 17 14 15 16 17 16 16 15 16 17 18 20 18 17 17 18 17 17 18 16 18 18 18 18 17 16 16 15 13 12 12 12 11 12 12 17 19 21
Wind_Direction
31 142 74 67 41 49 72 316 296 1 38 304 313 298 318 351 160 158 151 135 110 73 50 44 35 18 2 20 19 16 11 12 360 352 340 322 338 327 312 328 328 317 320 318
165 82 91 97 77 84 226 261 355 301 348 314 320 305 228 189 114 117 127 111 83 80 69 42 34 38 31 24 23 8 8 6 6 352 353 333 333 327 323 316 314 324 326 330
78 95 129 203 155 226 198 313 8 322 322 262 299 244 178 158 151 128 109 88 66 31 17 21 17 23 21 21 14 7 3 359 4 356 332 319 298 284 297 318 316 326 317 313
72 102 193 173 113 316 275 28 342 307 308 318 336 304 187 172 165 152 126 94 57 48 45 33 28 35 25 14 7 8 11 14 10 355 335 339 330 323 337 319 319 315 316 313
97 164 150 124 66 285 32 356 313 285 262 300 161 252 111 174 195 178 140 96 68 49 48 56 53 51 44 39 42 45 45 39 24 16 7 350 346 333 326 319 320 322 320 321
88 140 343 62 180 203 85 203 219 220 248 236 29 298 151 170 202 168 149 129 114 100 97 79 70 63 60 58 56 54 58 51 43 40 35 27 12 355 347 347 338 335 320 318
138 127 121 258 217 170 234 239 275 233 216 315 118 263 305 149 164 179 156 141 129 122 105 80 62 51 45 40 38 40 41 41 34 35 33 27 18 8 357 352 344 338 338 337
207 220 182 55 342 335 332 294 268 266 249 315 159 237 123 132 127 128 129 130 136 126 85 69 61 61 60 52 41 37 35 35 24 23 17 14 10 359 353 347 339 332 330 330
263 171 86 37 16 343 114 235 2 73 54 267 243 256 196 146 148 148 131 125 91 67 85 104 106 79 61 53 39 24 16 21 18 6 1 359 357 350 342 337 332 332 324 323
110 265 52 91 354 93 267 106 212 27 279 267 224 275 274 186 192 175 157 119 69 28 299 213 223 292 239 290 12 10 14 357 359 350 349 344 341 342 336 331 334 332 330 324
168 222 135 184 197 186 163 193 78 307 294 293 306 200 39 15 222 204 189 153 43 8 342 245 249 257 280 293 323 332 344 332 345 340 336 331 329 328 325 321 324 327 323 324
165 209 227 212 124 303 241 204 207 220 181 226 270 271 134 307 263 235 200 213 312 320 295 216 217 205 225 311 317 325 325 325 332 331 323 322 315 317 317 316 317 319 315 316
170 215 289 192 139 173 242 201 184 90 330 232 255 240 131 83 81 161 225 296 314 309 295 263 231 219 271 302 310 305 306 308 313 313 312 311 309 308 311 314 317 316 316 315
177 199 231 260 338 114 206 201 213 219 223 268 240 271 265 275 306 333 304 309 318 325 316 240 213 236 274 286 297 296 296 306 302 304 307 307 312 312 310 310 307 307 310 308
251 231 240 252 263 247 255 256 239 223 232 250 274 275 291 312 330 343 331 336 333 332 300 271 293 296 290 292 300 303 295 299 299 296 297 301 306 305 304 303 304 302 303 305
179 243 34 268 265 274 279 269 255 255 258 260 271 281 11 39 9 360 357 347 341 335 318 290 288 308 282 277 290 298 302 303 300 293 295 298 297 301 299 297 298 300 301 301
196 203 280 274 59 315 269 256 259 243 245 255 267 340 1 357 355 347 326 319 315 321 314 306 295 289 286 284 289 291 301 301 287 287 291 297 300 298 293 295 296 296 299 298
184 159 234 291 294 250 80 349 279 242 28 355 155 35 355 328 313 306 295 294 304 305 309 303 295 288 289 294 290 295 299 287 287 283 287 290 291 291 293 291 291 294 296 293
227 226 244 254 242 300 274 64 56 247 151 87 30 339 327 321 312 295 294 319 305 303 304 299 294 294 294 291 288 291 287 286 287 281 285 287 285 285 284 284 289 289 287 286
146 233 214 184 250 269 77 29 345 239 250 81 342 323 322 325 307 305 331 317 305 301 300 301 297 296 294 293 287 278 279 284 283 288 288 285 280 278 281 284 285 285 283 283
138 179 218 227 249 267 93 333 313 252 359 325 320 312 310 299 292 303 308 303 300 299 298 296 294 292 291 288 280 278 284 284 289 287 285 279 276 275 275 278 278 279 280 282
187 179 200 223 250 266 73 171 287 348 318 308 304 305 304 303 302 303 306 305 304 301 301 303 301 293 292 283 283 275 281 285 287 286 282 279 279 280 279 276 276 275 275 278
225 232 222 229 251 65 240 291 296 288 292 296 287 293 304 299 301 301 297 294 295 292 293 296 294 292 288 281 277 273 278 287 285 279 278 279 282 282 279 274 273 275 272 271
201 179 248 313 252 289 298 303 306 284 306 298 281 285 288 294 301 299 298 300 299 296 294 295 294 292 291 291 288 278 280 282 279 280 282 282 280 281 281 274 265 264 270 271
8 163 236 263 284 292 281 281 300 293 293 288 284 282 281 289 291 293 293 292 291 291 290 288 284 281 281 289 290 290 287 284 279 281 280 280 278 277 280 276 272 268 265 263
191 207 217 277 298 280 283 289 292 286 284 282 282 287 282 288 286 287 285 286 290 288 290 288 285 284 286 288 286 286 287 286 283 281 279 277 278 275 273 275 277 265 258 264